Regional Weather Roundup
Issued by NWS

Home | Current Version | Previous Version | Graphics & Text | Print | Product List | Glossary On
Versions: 1 2 3 4 5 6 7 8 9 10 11 12 13 14 15 16 17 18 19 20 21 22 23 24 25 26 27 28 29 30 31 32 33 34 35 36 37 38 39 40 41 42 43 44 45 46 47 48 49 50
000
ASUS43 KIND 200709
RWRIN

WEATHER ROUNDUP FOR INDIANA
NATIONAL WEATHER SERVICE INDIANAPOLIS IN
200 AM EST MON NOV 20 2017

NOTE: "FAIR" INDICATES FEW OR NO CLOUDS BELOW 12,000 FEET WITH NO
SIGNIFICANT WEATHER AND/OR OBSTRUCTIONS TO VISIBILITY.

* - STATION DOES NOT REPORT WEATHER SUCH AS PRECIPITATION OR FOG.

+ - STATION NOT QUALITY CONTROLLED BY THE NATIONAL WEATHER SERVICE.
    USE DATA WITH CAUTION...ESPECIALLY DEWPOINT AND RELATIVE
    HUMIDITY OBSERVATIONS.

INZ001>003-010>013-019-020-200800-
NORTHWEST INDIANA

CITY           SKY/WX    TMP DP  RH WIND       PRES   REMARKS
GARY /AIRPORT/ CLEAR     31  22  67 S3        30.06F
KNOX *+        CLEAR     27  23  86 S6        30.08F WCI  20
LA PORTE +     PTCLDY    25  21  85 SW6       30.07F WCI  18
MICHIGAN CITY+ CLEAR     27  21  80 SW6       30.06F WCI  20
MONTICELLO +   CLOUDY    27  24  87 S7        30.11F WCI  20
RENSSELAER +   CLOUDY    30  23  74 S8        30.09F WCI  23
VALPARAISO     CLEAR     30  22  72 SW9       30.07F WCI  22

$$

LMZ046-743>745-200800-
SOUTHERN LAKE MICHIGAN

STATION/POSITION TIME  TEMP    WIND        PRES    WAVE
                       AIR SEA DIR/SP/G            HT
                 (UTC) (F)     (DEG/KT/KT) (MB)    (FT)
BURNS HARBOR     0640   32     210/  9/ 13 1018.3F
MICHIGAN CITY    0640   30     190/ 10/ 11   N/A

$$

INZ004-005-014>016-021>024-200800-
NORTH CENTRAL INDIANA

CITY           SKY/WX    TMP DP  RH WIND       PRES   REMARKS
GOSHEN         CLEAR     27  19  72 SW8       30.07F WCI  19
LOGANSPORT +   CLEAR     28  25  86 S9        30.12F WCI  20
PERU/GRISSOM   CLEAR     25  24  94 SW8       30.11F WCI  16
ROCHESTER +    CLEAR     30  25  80 SW7       30.09F WCI  23
SOUTH BEND     PTCLDY    25  22  88 S8        30.06F WCI  16
WARSAW +       PTCLDY    28  21  74 SW7       30.09S WCI  21

$$

INZ006>009-017-018-025>027-200800-
NORTHEAST INDIANA

CITY           SKY/WX    TMP DP  RH WIND       PRES   REMARKS
AUBURN +       CLEAR     28  21  74 SW6       30.08S WCI  22
FORT WAYNE     PTCLDY    29  23  78 SW9       30.11R WCI  20
HUNTINGTON +   CLEAR     27  22  82 SW7       30.11S WCI  20
KENDALLVILLE + CLEAR     27  22  80 W9        30.07S WCI  18

$$

INZ028-029-035-036-043>045-051>053-200800-
WEST CENTRAL INDIANA

CITY           SKY/WX    TMP DP  RH WIND       PRES   REMARKS
CRAWFORDSVL +  CLEAR     25  23  93 SW6       30.13R WCI  18
GREENCASTLE +  CLEAR     27  21  80 CALM      30.17S
LAFAYETTE      CLOUDY    27  23  85 SW3       30.13F
TERRE HAUTE    CLOUDY    25  20  81 SE3       30.17F

$$

INZ030>032-037>040-046>048-054>057-064-065-200800-
CENTRAL INDIANA

CITY           SKY/WX    TMP DP  RH WIND       PRES   REMARKS
CP ATTERBURY + CLEAR     25  23  93 CALM      30.19S
FISHERS *+     CLEAR     25  25 100 CALM      30.16S
FRANKFORT +    CLEAR     29  25  84 SW7       30.14F WCI  22
GREENWOOD *+   CLEAR     29  24  82 CALM      30.17S
INDIANAPOLIS   CLEAR     25  20  81 SW6       30.17S WCI  18
-EAGLE CREEK   CLEAR     26  20  77 S5        30.15S WCI  20
KOKOMO +       CLEAR     26  23  88 SW8       30.13F WCI  18
MARION +       CLEAR     28  24  85 SW9       30.13F WCI  19
MT COMFORT *+  CLEAR     25  25 100 SW6       30.16S WCI  18
SHELBYVILLE    CLEAR     26  20  77 SW6       30.17S WCI  19
ZIONSVILLE +   CLEAR     26  23  87 SW6       30.14F WCI  19

$$

INZ033-034-041-042-049-050-058-059-200800-
EAST CENTRAL INDIANA

CITY           SKY/WX    TMP DP  RH WIND       PRES   REMARKS
MUNCIE         CLEAR     28  21  75 SW7       30.14R WCI  21
RICHMOND +     CLEAR     27  23  86 W8        30.14S WCI  18

$$

INZ060-061-067>069-081>083-085>088-200800-
SOUTHWEST INDIANA

CITY           SKY/WX    TMP DP  RH WIND       PRES   REMARKS
EVANSVILLE     CLEAR     27  24  89 SW5       30.23S WCI  22
HUNTINGBURG +  CLEAR     25  22  88 S3        30.22F
WASHINGTON +   CLOUDY    29  21  72 CALM      30.20S

$$

INZ062-063-066-070>080-084-089>092-200800-
SOUTH CENTRAL AND SOUTHEAST INDIANA

CITY           SKY/WX    TMP DP  RH WIND       PRES   REMARKS
BEDFORD +      CLEAR     27  21  80 CALM      30.18F
BLOOMINGTON    CLEAR     27  20  75 SW3       30.18S
MADISON *+     CLEAR     28  23  80 CALM      30.21S
NORTH VERNON + PTCLDY    25  21  86 SW5       30.19F WCI  19
SEYMOUR +      CLEAR     25  19  80 SW6       30.20S WCI  18

$$





USA.gov is the U.S. government's official web portal to all federal, state and local government web resources and services.